When you browse on this site, cookies collect data to enhance your experience and personalize the content and advertising you see.
Visit our Privacy Policy to learn more. By continuing to use the site, you agree to this use of cookies and data.

Hourly Weather Springfield

Today, 2 July, Thursday

Time Temperature Precipitation Wind Pressure Humidity
00:00 +16°C° 0 mm 0 mps 735 mmHg 95%
01:00 +15°C° 0 mm 0 mps 735 mmHg 96%
02:00 +15°C° 0 mm 0 mps 734 mmHg 96%
03:00 +15°C° 0 mm 0 mps 734 mmHg 96%
04:00 +16°C° 0 mm 1 mps 734 mmHg 96%
05:00 +16°C° 0 mm 0 mps 734 mmHg 94%
06:00 +18°C° 0 mm 0 mps 735 mmHg 93%
07:00 +20°C° 0 mm 0 mps 735 mmHg 91%
08:00 +24°C° 0 mm 1 mps 735 mmHg 78%
09:00 +27°C° 0 mm 1 mps 734 mmHg 66%
10:00 +30°C° 0 mm 1 mps 734 mmHg 53%
11:00 +31°C° 0.1 mm 2 mps 734 mmHg 49%
12:00 +32°C° 0.1 mm 2 mps 734 mmHg 46%
13:00 +34°C° 0.1 mm 2 mps 734 mmHg 42%
14:00 +31°C° 0.1 mm 3 mps 734 mmHg 47%
15:00 +30°C° 0.1 mm 3 mps 733 mmHg 52%
16:00 +29°C° 0.1 mm 3 mps 733 mmHg 57%
17:00 +27°C° 0 mm 2 mps 733 mmHg 65%
18:00 +26°C° 0 mm 1 mps 733 mmHg 72%
19:00 +24°C° 0 mm 1 mps 733 mmHg 79%
20:00 +23°C° 0 mm 1 mps 734 mmHg 82%
21:00 +22°C° 0 mm 1 mps 734 mmHg 85%
22:00 +21°C° 0 mm 1 mps 734 mmHg 88%
23:00 +21°C° 0 mm 1 mps 734 mmHg 90%

Tomorrow, 3 July, Friday

Time Temperature Precipitation Wind Pressure Humidity
00:00 +20°C° 0 mm 1 mps 734 mmHg 91%
01:00 +20°C° 0 mm 1 mps 734 mmHg 93%
02:00 +20°C° 0 mm 1 mps 734 mmHg 94%
03:00 +18°C° 0 mm 0 mps 734 mmHg 95%
04:00 +17°C° 0 mm 0 mps 734 mmHg 96%
05:00 +18°C° 0.3 mm 0 mps 734 mmHg 94%
06:00 +21°C° 0.3 mm 1 mps 735 mmHg 91%
07:00 +23°C° 0.3 mm 1 mps 735 mmHg 89%
08:00 +23°C° 0.2 mm 1 mps 736 mmHg 86%
09:00 +24°C° 0.2 mm 1 mps 736 mmHg 83%
10:00 +25°C° 0.2 mm 2 mps 736 mmHg 79%
11:00 +25°C° 0.5 mm 2 mps 736 mmHg 79%
12:00 +26°C° 0.5 mm 2 mps 736 mmHg 79%
13:00 +26°C° 0.5 mm 2 mps 736 mmHg 78%
14:00 +25°C° 0.7 mm 2 mps 736 mmHg 83%
15:00 +24°C° 0.7 mm 2 mps 736 mmHg 88%
16:00 +23°C° 0.7 mm 2 mps 736 mmHg 93%
17:00 +21°C° 0.2 mm 2 mps 736 mmHg 93%
18:00 +22°C° 0.2 mm 1 mps 736 mmHg 94%
19:00 +21°C° 0.2 mm 1 mps 736 mmHg 95%
20:00 +20°C° 0 mm 1 mps 736 mmHg 96%
21:00 +17°C° 0 mm 0 mps 737 mmHg 96%
22:00 +16°C° 0 mm 0 mps 737 mmHg 97%
23:00 +16°C° 0 mm 0 mps 737 mmHg 97%

Day after tomorrow, 4 July, Saturday

Time Temperature Precipitation Wind Pressure Humidity
00:00 +15°C° 0 mm 0 mps 737 mmHg 97%
01:00 +15°C° 0 mm 0 mps 737 mmHg 96%
02:00 +15°C° 0 mm 0 mps 737 mmHg 96%
03:00 +15°C° 0 mm 0 mps 737 mmHg 96%
04:00 +15°C° 0 mm 0 mps 737 mmHg 97%
05:00 +16°C° 0 mm 0 mps 737 mmHg 94%
06:00 +17°C° 0 mm 0 mps 737 mmHg 92%
07:00 +18°C° 0 mm 0 mps 738 mmHg 89%
08:00 +20°C° 0 mm 0 mps 738 mmHg 78%
09:00 +23°C° 0 mm 0 mps 738 mmHg 67%
10:00 +28°C° 0 mm 1 mps 738 mmHg 57%
11:00 +29°C° 0 mm 1 mps 738 mmHg 53%
12:00 +28°C° 0 mm 0 mps 738 mmHg 50%
13:00 +29°C° 0 mm 0 mps 738 mmHg 47%
14:00 +30°C° 0 mm 1 mps 738 mmHg 49%
15:00 +29°C° 0 mm 1 mps 737 mmHg 52%
16:00 +28°C° 0 mm 1 mps 737 mmHg 54%
17:00 +27°C° 0.1 mm 1 mps 737 mmHg 65%
18:00 +25°C° 0.1 mm 1 mps 737 mmHg 76%
19:00 +23°C° 0.1 mm 1 mps 737 mmHg 86%
20:00 +22°C° 0.1 mm 1 mps 737 mmHg 89%
21:00 +21°C° 0.1 mm 1 mps 737 mmHg 92%
22:00 +20°C° 0.1 mm 1 mps 737 mmHg 95%
23:00 +19°C° 0 mm 1 mps 737 mmHg 96%

5 July, Sunday

Time Temperature Precipitation Wind Pressure Humidity
00:00 +19°C° 0 mm 1 mps 737 mmHg 96%
01:00 +18°C° 0 mm 1 mps 737 mmHg 97%
02:00 +18°C° 0.1 mm 1 mps 737 mmHg 97%
03:00 +18°C° 0.1 mm 1 mps 737 mmHg 97%
04:00 +18°C° 0.1 mm 1 mps 737 mmHg 97%
05:00 +19°C° 0 mm 1 mps 737 mmHg 96%
06:00 +20°C° 0 mm 1 mps 737 mmHg 95%
07:00 +22°C° 0 mm 1 mps 737 mmHg 94%
08:00 +24°C° 0.1 mm 1 mps 737 mmHg 80%
09:00 +27°C° 0.1 mm 1 mps 737 mmHg 66%
10:00 +29°C° 0.1 mm 1 mps 737 mmHg 52%
11:00 +30°C° 0 mm 2 mps 736 mmHg 47%
12:00 +31°C° 0 mm 3 mps 736 mmHg 42%
13:00 +33°C° 0 mm 4 mps 736 mmHg 37%
14:00 +30°C° 0.1 mm 3 mps 736 mmHg 47%
15:00 +28°C° 0.1 mm 3 mps 736 mmHg 58%
16:00 +26°C° 0.1 mm 3 mps 735 mmHg 69%
17:00 +25°C° 0.4 mm 2 mps 736 mmHg 76%
18:00 +24°C° 0.4 mm 2 mps 736 mmHg 83%
19:00 +23°C° 0.4 mm 1 mps 736 mmHg 90%
20:00 +21°C° 0.1 mm 1 mps 736 mmHg 91%
21:00 +20°C° 0.1 mm 1 mps 737 mmHg 93%
22:00 +19°C° 0.1 mm 1 mps 737 mmHg 95%
23:00 +18°C° 0 mm 1 mps 737 mmHg 95%

6 July, Monday

Time Temperature Precipitation Wind Pressure Humidity
00:00 +16°C° 0 mm 1 mps 737 mmHg 94%
01:00 +15°C° 0 mm 1 mps 737 mmHg 94%
02:00 +15°C° 0 mm 1 mps 737 mmHg 92%
03:00 +14°C° 0 mm 1 mps 737 mmHg 91%
04:00 +13°C° 0 mm 1 mps 737 mmHg 90%
05:00 +15°C° 0 mm 1 mps 738 mmHg 86%
06:00 +16°C° 0 mm 0 mps 738 mmHg 82%
07:00 +18°C° 0 mm 0 mps 739 mmHg 78%
08:00 +22°C° 0 mm 1 mps 739 mmHg 64%
09:00 +25°C° 0 mm 1 mps 739 mmHg 51%
10:00 +27°C° 0 mm 1 mps 740 mmHg 37%
11:00 +28°C° 0 mm 1 mps 739 mmHg 35%
12:00 +29°C° 0 mm 2 mps 739 mmHg 34%
13:00 +30°C° 0 mm 2 mps 739 mmHg 32%
14:00 +29°C° 0 mm 2 mps 739 mmHg 34%
15:00 +29°C° 0 mm 2 mps 739 mmHg 36%
16:00 +28°C° 0 mm 2 mps 739 mmHg 38%
17:00 +26°C° 0 mm 2 mps 739 mmHg 48%
18:00 +24°C° 0 mm 1 mps 739 mmHg 59%
19:00 +22°C° 0 mm 1 mps 739 mmHg 69%
20:00 +21°C° 0 mm 1 mps 739 mmHg 70%
21:00 +17°C° 0 mm 0 mps 740 mmHg 71%
22:00 +16°C° 0 mm 0 mps 740 mmHg 72%
23:00 +15°C° 0 mm 0 mps 740 mmHg 74%

7 July, Tuesday

Time Temperature Precipitation Wind Pressure Humidity
00:00 +15°C° 0 mm 0 mps 740 mmHg 77%
01:00 +14°C° 0 mm 0 mps 740 mmHg 79%
02:00 +14°C° 0 mm 0 mps 740 mmHg 81%
03:00 +14°C° 0 mm 0 mps 740 mmHg 83%
04:00 +13°C° 0 mm 0 mps 740 mmHg 86%
05:00 +15°C° 0 mm 0 mps 740 mmHg 80%
06:00 +17°C° 0 mm 0 mps 740 mmHg 75%
07:00 +19°C° 0 mm 0 mps 740 mmHg 70%
08:00 +22°C° 0 mm 0 mps 740 mmHg 63%
09:00 +25°C° 0 mm 0 mps 740 mmHg 56%
10:00 +27°C° 0 mm 0 mps 740 mmHg 49%
11:00 +28°C° 0 mm 0 mps 740 mmHg 45%
12:00 +31°C° 0 mm 1 mps 740 mmHg 42%
13:00 +32°C° 0 mm 1 mps 740 mmHg 38%
14:00 +31°C° 0 mm 1 mps 739 mmHg 39%
15:00 +31°C° 0 mm 1 mps 739 mmHg 40%
16:00 +30°C° 0 mm 1 mps 739 mmHg 41%
17:00 +28°C° 0 mm 1 mps 739 mmHg 53%
18:00 +26°C° 0 mm 1 mps 739 mmHg 65%
19:00 +23°C° 0 mm 1 mps 739 mmHg 77%
20:00 +20°C° 0 mm 0 mps 739 mmHg 80%
21:00 +19°C° 0 mm 0 mps 739 mmHg 83%
22:00 +17°C° 0 mm 0 mps 740 mmHg 86%
23:00 +17°C° 0 mm 0 mps 739 mmHg 88%
Show more